When you browse on this site, cookies collect data to enhance your experience and personalize the content and advertising you see.
Visit our Privacy Policy to learn more. By continuing to use the site, you agree to this use of cookies and data.
  • In Latvia
  • List of Countries
  • For 7 days
  • Water Temperature
  • Weather Map
  • Weather Widgets
  • user-avatar
    Login

    Hourly Weather Vasilevo

    Today, 25 February, Tuesday

    Time Temperature Precipitation Wind Pressure Humidity
    00:00 -3°C° 0 mm 4 mps 738 mmHg 78%
    01:00 -2°C° 0 mm 3 mps 738 mmHg 78%
    02:00 -2°C° 0 mm 3 mps 738 mmHg 79%
    03:00 -2°C° 0 mm 3 mps 738 mmHg 79%
    04:00 -2°C° 0 mm 3 mps 738 mmHg 80%
    05:00 -2°C° 0 mm 3 mps 738 mmHg 80%
    06:00 -2°C° 0 mm 3 mps 738 mmHg 81%
    07:00 -2°C° 0 mm 3 mps 738 mmHg 81%
    08:00 -2°C° 0 mm 3 mps 738 mmHg 82%
    09:00 -1°C° 0 mm 3 mps 738 mmHg 75%
    10:00 0°C° 0 mm 3 mps 737 mmHg 68%
    11:00 0°C° 0 mm 3 mps 737 mmHg 62%
    12:00 +2°C° 0 mm 2 mps 737 mmHg 59%
    13:00 +2°C° 0 mm 2 mps 737 mmHg 56%
    14:00 +3°C° 0 mm 2 mps 736 mmHg 54%
    15:00 +2°C° 0 mm 2 mps 736 mmHg 58%
    16:00 +1°C° 0 mm 2 mps 735 mmHg 63%
    17:00 +1°C° 0 mm 2 mps 735 mmHg 67%
    18:00 -1°C° 0 mm 2 mps 734 mmHg 70%
    19:00 -1°C° 0 mm 3 mps 734 mmHg 73%
    20:00 -1°C° 0 mm 3 mps 733 mmHg 76%
    21:00 -2°C° 0.3 mm 4 mps 732 mmHg 83%
    22:00 -2°C° 0.3 mm 4 mps 731 mmHg 90%
    23:00 -2°C° 0.3 mm 5 mps 730 mmHg 96%

    Tomorrow, 26 February, Wednesday

    Time Temperature Precipitation Wind Pressure Humidity
    00:00 -1°C° 0.3 mm 4 mps 730 mmHg 96%
    01:00 -1°C° 0.3 mm 4 mps 729 mmHg 97%
    02:00 +1°C° 0.3 mm 3 mps 728 mmHg 97%
    03:00 0°C° 0.2 mm 3 mps 728 mmHg 97%
    04:00 +1°C° 0.2 mm 2 mps 728 mmHg 97%
    05:00 +1°C° 0.2 mm 2 mps 727 mmHg 96%
    06:00 +1°C° 0 mm 2 mps 727 mmHg 95%
    07:00 -1°C° 0 mm 2 mps 727 mmHg 94%
    08:00 -1°C° 0 mm 2 mps 727 mmHg 93%
    09:00 +1°C° 0 mm 2 mps 727 mmHg 87%
    10:00 +1°C° 0 mm 3 mps 727 mmHg 80%
    11:00 +2°C° 0 mm 3 mps 728 mmHg 73%
    12:00 +2°C° 0.1 mm 3 mps 728 mmHg 73%
    13:00 +3°C° 0.1 mm 4 mps 728 mmHg 72%
    14:00 +3°C° 0.1 mm 4 mps 728 mmHg 71%
    15:00 +2°C° 0 mm 3 mps 728 mmHg 74%
    16:00 +1°C° 0 mm 3 mps 728 mmHg 77%
    17:00 +2°C° 0 mm 2 mps 728 mmHg 80%
    18:00 +1°C° 0 mm 2 mps 729 mmHg 81%
    19:00 +1°C° 0 mm 2 mps 729 mmHg 83%
    20:00 +1°C° 0 mm 2 mps 729 mmHg 84%
    21:00 -1°C° 0 mm 2 mps 729 mmHg 85%
    22:00 -1°C° 0 mm 2 mps 730 mmHg 86%
    23:00 -2°C° 0 mm 2 mps 730 mmHg 87%

    Day after tomorrow, 27 February, Thursday

    Time Temperature Precipitation Wind Pressure Humidity
    00:00 -2°C° 0 mm 2 mps 730 mmHg 89%
    01:00 -2°C° 0 mm 2 mps 730 mmHg 90%
    02:00 -2°C° 0 mm 2 mps 730 mmHg 91%
    03:00 -2°C° 0 mm 2 mps 730 mmHg 92%
    04:00 -1°C° 0 mm 2 mps 729 mmHg 92%
    05:00 -1°C° 0 mm 2 mps 729 mmHg 93%
    06:00 -1°C° 0.1 mm 2 mps 729 mmHg 91%
    07:00 +1°C° 0.1 mm 2 mps 729 mmHg 90%
    08:00 0°C° 0.1 mm 3 mps 729 mmHg 88%
    09:00 +1°C° 0 mm 3 mps 729 mmHg 85%
    10:00 +2°C° 0 mm 2 mps 729 mmHg 82%
    11:00 +3°C° 0 mm 2 mps 729 mmHg 78%
    12:00 +3°C° 0.2 mm 2 mps 729 mmHg 81%
    13:00 +2°C° 0.2 mm 3 mps 729 mmHg 83%
    14:00 +1°C° 0.2 mm 3 mps 729 mmHg 86%
    15:00 +1°C° 0.9 mm 3 mps 729 mmHg 89%
    16:00 0°C° 0.9 mm 3 mps 729 mmHg 92%
    17:00 -1°C° 0.9 mm 3 mps 728 mmHg 95%
    18:00 -1°C° 0.1 mm 3 mps 729 mmHg 93%
    19:00 -1°C° 0.1 mm 2 mps 729 mmHg 90%
    20:00 -2°C° 0.1 mm 2 mps 729 mmHg 88%
    21:00 -2°C° 0 mm 2 mps 729 mmHg 89%
    22:00 -3°C° 0 mm 2 mps 729 mmHg 89%
    23:00 -3°C° 0 mm 2 mps 729 mmHg 90%

    28 February, Friday

    Time Temperature Precipitation Wind Pressure Humidity
    00:00 -3°C° 0 mm 2 mps 729 mmHg 91%
    01:00 -3°C° 0 mm 2 mps 729 mmHg 92%
    02:00 -3°C° 0 mm 2 mps 729 mmHg 93%
    03:00 -4°C° 0 mm 2 mps 729 mmHg 93%
    04:00 -4°C° 0 mm 2 mps 729 mmHg 92%
    05:00 -4°C° 0 mm 2 mps 730 mmHg 92%
    06:00 -4°C° 0 mm 2 mps 730 mmHg 91%
    07:00 -3°C° 0 mm 2 mps 730 mmHg 91%
    08:00 -3°C° 0 mm 2 mps 730 mmHg 90%
    09:00 -2°C° 0 mm 2 mps 730 mmHg 86%
    10:00 -1°C° 0 mm 2 mps 730 mmHg 83%
    11:00 -1°C° 0 mm 2 mps 731 mmHg 79%
    12:00 +1°C° 0.1 mm 2 mps 731 mmHg 81%
    13:00 +1°C° 0.1 mm 2 mps 731 mmHg 82%
    14:00 +1°C° 0.1 mm 2 mps 732 mmHg 84%
    15:00 +1°C° 0.2 mm 2 mps 732 mmHg 86%
    16:00 -1°C° 0.2 mm 2 mps 732 mmHg 88%
    17:00 -1°C° 0.2 mm 2 mps 732 mmHg 90%
    18:00 -2°C° 0.1 mm 2 mps 733 mmHg 91%
    19:00 -2°C° 0.1 mm 3 mps 733 mmHg 93%
    20:00 -2°C° 0.1 mm 3 mps 733 mmHg 95%
    21:00 -4°C° 0.2 mm 3 mps 733 mmHg 94%
    22:00 -4°C° 0.2 mm 3 mps 734 mmHg 93%
    23:00 -4°C° 0.2 mm 4 mps 734 mmHg 92%

    29 February, Saturday

    Time Temperature Precipitation Wind Pressure Humidity
    00:00 -4°C° 0.1 mm 4 mps 734 mmHg 91%
    01:00 -4°C° 0.1 mm 4 mps 734 mmHg 91%
    02:00 -4°C° 0.1 mm 3 mps 734 mmHg 90%
    03:00 -4°C° 0.2 mm 4 mps 734 mmHg 91%
    04:00 -4°C° 0.2 mm 4 mps 734 mmHg 91%
    05:00 -4°C° 0.2 mm 4 mps 734 mmHg 92%
    06:00 -5°C° 0.2 mm 3 mps 734 mmHg 92%
    07:00 -5°C° 0.2 mm 3 mps 735 mmHg 92%
    08:00 -5°C° 0.2 mm 3 mps 735 mmHg 91%
    09:00 -4°C° 0.1 mm 3 mps 735 mmHg 87%
    10:00 -4°C° 0.1 mm 3 mps 735 mmHg 82%
    11:00 -4°C° 0.1 mm 3 mps 735 mmHg 77%
    12:00 -4°C° 0 mm 4 mps 736 mmHg 73%
    13:00 -4°C° 0 mm 4 mps 736 mmHg 69%
    14:00 -3°C° 0 mm 4 mps 736 mmHg 65%
    15:00 -4°C° 0 mm 4 mps 736 mmHg 66%
    16:00 -4°C° 0 mm 4 mps 736 mmHg 67%
    17:00 -4°C° 0 mm 3 mps 737 mmHg 68%
    18:00 -4°C° 0 mm 3 mps 737 mmHg 71%
    19:00 -5°C° 0 mm 3 mps 737 mmHg 73%
    20:00 -5°C° 0 mm 3 mps 738 mmHg 75%
    21:00 -5°C° 0 mm 3 mps 738 mmHg 78%
    22:00 -6°C° 0 mm 3 mps 738 mmHg 80%
    23:00 -6°C° 0 mm 3 mps 739 mmHg 82%

    1 March, Sunday

    Time Temperature Precipitation Wind Pressure Humidity
    00:00 -6°C° 0 mm 3 mps 739 mmHg 83%
    01:00 -6°C° 0 mm 3 mps 739 mmHg 84%
    02:00 -5°C° 0 mm 2 mps 739 mmHg 86%
    03:00 -6°C° 0 mm 2 mps 739 mmHg 86%
    04:00 -6°C° 0 mm 2 mps 739 mmHg 87%
    05:00 -6°C° 0 mm 2 mps 739 mmHg 88%
    06:00 -5°C° 0 mm 2 mps 739 mmHg 87%
    07:00 -5°C° 0 mm 2 mps 739 mmHg 86%
    08:00 -5°C° 0 mm 3 mps 739 mmHg 85%
    09:00 -4°C° 0 mm 3 mps 738 mmHg 80%
    10:00 -3°C° 0 mm 4 mps 738 mmHg 75%
    11:00 -2°C° 0 mm 5 mps 737 mmHg 70%
    12:00 -2°C° 0.2 mm 5 mps 737 mmHg 77%
    13:00 -4°C° 0.2 mm 5 mps 736 mmHg 83%
    14:00 -4°C° 0.2 mm 5 mps 736 mmHg 89%
    15:00 -4°C° 0.2 mm 5 mps 736 mmHg 89%
    16:00 -3°C° 0.2 mm 4 mps 736 mmHg 90%
    17:00 -3°C° 0.2 mm 4 mps 736 mmHg 90%
    18:00 -2°C° 0 mm 3 mps 736 mmHg 91%
    19:00 -2°C° 0 mm 3 mps 736 mmHg 92%
    20:00 -2°C° 0 mm 3 mps 736 mmHg 94%
    21:00 -2°C° 0 mm 3 mps 736 mmHg 94%
    22:00 -2°C° 0 mm 2 mps 736 mmHg 95%
    23:00 -2°C° 0 mm 2 mps 736 mmHg 95%
    Show more